Wind_Speed
7 7 7 6 5 5 5 5 5 5 4 4 3 3 3 3 3 2 2 2 3 2 3 3 3 4 4 4 5 5 6 6 6 6 6 7 7 8 9 9 9 10 10
7 7 7 6 5 5 5 4 3 4 3 3 3 2 2 3 3 3 3 3 3 3 4 4 5 5 6 6 7 7 7 7 7 8 8 8 9 10 10 11 11 12 12
7 7 7 6 5 4 4 3 3 3 3 2 2 3 2 2 2 3 3 3 4 4 5 5 5 6 6 7 8 8 8 9 9 9 10 10 11 11 12 12 13 14 14
8 7 6 6 4 4 3 3 2 2 2 2 2 3 3 2 3 3 3 4 4 5 5 6 6 7 7 8 8 9 9 9 10 10 11 12 12 12 13 13 14 15 15
8 7 5 5 4 3 2 2 2 1 1 1 1 2 3 3 4 4 4 5 5 6 6 7 7 8 8 9 9 9 10 10 10 11 12 12 13 14 14 14 15 16 16
7 7 5 4 3 3 2 2 1 1 1 0 1 1 2 3 4 5 5 6 6 7 8 8 9 9 9 10 10 10 11 11 11 12 12 13 14 14 14 15 15 15 16
7 6 5 4 4 3 2 2 2 1 1 1 1 2 3 4 5 6 7 7 7 7 8 9 10 10 10 11 11 11 12 12 12 13 14 15 15 15 15 15 15 15 15
5 4 5 4 4 3 3 2 2 2 2 2 2 3 3 4 4 6 7 7 8 9 9 10 10 10 11 12 12 12 13 13 14 14 15 15 15 15 15 16 16 16 17
5 4 4 4 4 3 3 3 3 3 3 3 4 4 4 5 6 7 7 7 8 9 9 10 10 10 11 11 11 11 12 12 13 14 14 15 15 15 16 16 16 16 17
5 4 4 3 3 3 3 3 4 4 4 4 4 4 4 5 6 6 7 7 8 8 9 9 10 10 10 10 11 11 12 13 14 14 15 16 16 16 16 17 17 17 17
4 4 4 3 3 3 4 4 5 5 4 4 4 5 5 5 6 6 7 8 8 9 9 9 10 10 10 10 11 12 13 14 14 15 15 16 16 17 17 17 18 18 18
4 4 4 3 3 4 4 5 6 6 6 6 5 5 6 6 7 7 8 9 9 9 10 10 11 11 11 12 12 13 13 14 15 15 15 16 16 17 17 17 18 18 18
4 4 4 4 4 4 5 5 6 6 6 6 6 6 7 7 8 9 9 9 9 10 10 11 11 12 12 13 13 14 14 14 15 16 15 15 15 16 17 17 18 19 19
5 4 4 4 4 4 5 5 6 7 7 7 7 7 7 8 9 9 10 10 10 11 11 12 12 12 12 13 14 14 15 15 16 16 16 16 16 16 16 18 18 19 19
5 5 5 5 5 6 6 6 6 7 7 7 8 8 8 9 9 10 11 11 11 11 11 12 12 12 12 13 13 14 14 15 15 15 16 16 16 17 17 18 18 19 20
5 5 6 6 7 7 7 7 7 8 8 8 8 8 9 9 10 11 11 12 12 12 12 13 13 13 13 14 14 15 15 15 15 15 16 16 17 17 17 18 20 20 21
6 6 7 7 8 8 8 8 8 9 9 9 9 9 9 10 11 12 12 13 13 13 13 13 13 14 14 15 15 16 16 16 16 15 16 17 18 18 19 19 20 21 22
7 7 7 8 8 9 9 10 9 9 10 10 10 10 10 11 12 13 13 13 13 13 13 13 14 15 15 15 15 16 17 16 17 17 17 18 19 19 20 20 21 21 22
8 8 8 8 9 9 10 11 11 11 11 11 11 11 11 12 12 13 13 14 14 14 14 14 15 15 15 15 16 17 16 17 18 19 19 19 20 20 21 21 22 22 23
9 9 9 9 10 10 11 12 12 11 12 12 12 12 13 13 14 14 14 15 15 15 15 15 16 16 17 17 17 17 17 18 18 19 20 20 20 21 21 22 22 23 23
10 10 10 10 11 12 12 13 13 13 13 13 13 14 14 15 15 16 16 16 16 16 16 17 17 17 18 18 18 18 19 20 20 20 21 20 21 21 22 23 23 23 24
12 12 12 12 12 13 13 14 14 14 14 15 15 15 16 16 17 17 18 18 18 18 18 18 18 19 18 18 19 20 20 21 22 22 22 22 23 23 23 23 23 24 24
13 14 14 14 14 14 15 15 16 16 16 16 17 17 17 18 18 19 19 18 19 19 19 20 20 19 20 20 21 21 21 22 23 23 23 23 24 24 24 24 24 24 24
15 16 16 16 16 16 16 17 17 17 17 18 18 18 18 19 19 20 20 20 20 20 20 20 21 21 21 22 23 23 23 23 24 24 24 24 24 25 25 24 24 25 25
17 18 16 17 18 18 19 18 18 19 19 19 19 19 19 20 21 21 21 21 21 21 21 21 22 22 23 23 23 24 24 24 25 25 26 25 26 26 26 25 25 25 26
19 19 18 19 19 19 20 20 20 20 20 21 21 21 22 22 22 22 22 22 22 23 23 23 23 24 24 24 24 25 25 26 26 26 26 26 26 25 26 26 25 26 26
Wind_Direction
132 142 147 147 145 137 138 145 144 141 142 155 160 164 183 197 204 213 229 250 260 263 269 278 285 281 284 287 288 287 283 281 278 281 281 277 278 278 274 272 273 274 271
125 134 142 142 138 135 138 139 139 160 159 161 174 182 198 208 224 235 249 274 280 279 275 280 280 281 281 282 282 282 280 280 277 276 278 278 276 278 277 274 275 274 271
116 121 131 132 126 125 127 134 139 158 163 194 221 223 216 222 235 251 260 276 281 282 279 280 280 285 284 283 281 278 279 280 280 279 277 279 279 277 276 276 276 275 273
112 118 121 120 118 122 130 134 135 140 171 221 240 239 240 248 256 247 263 277 283 285 282 281 282 282 283 283 283 279 277 279 280 281 280 281 282 280 277 277 277 274 273
104 110 111 111 114 114 128 144 143 147 177 242 248 243 258 271 267 261 266 272 279 285 285 283 279 282 283 283 283 280 280 282 283 285 286 284 283 283 280 280 281 277 275
94 97 98 104 114 117 118 129 159 173 196 255 276 275 275 289 289 274 269 274 280 286 285 286 280 281 279 278 280 280 280 281 283 286 287 286 285 283 281 281 283 282 278
94 90 85 88 95 102 104 107 104 88 29 336 319 314 307 297 290 282 281 285 284 283 285 284 282 281 280 282 285 282 281 282 284 285 285 285 284 283 280 280 281 280 280
81 79 77 74 73 72 66 56 44 21 352 330 315 307 313 310 298 291 287 287 284 283 284 283 283 286 286 284 284 286 286 285 286 285 286 286 284 283 281 280 279 278 278
71 75 72 64 58 59 49 30 11 352 338 321 312 311 312 316 309 302 297 292 290 288 284 286 288 289 289 287 284 285 286 287 290 289 285 286 284 283 283 281 280 278 278
62 57 53 53 48 40 24 2 350 338 326 317 314 315 317 321 319 321 315 307 303 297 291 289 290 289 289 287 285 285 285 288 291 289 285 285 283 281 283 281 280 279 278
47 44 38 38 36 23 6 353 347 341 334 324 317 316 317 319 320 320 316 307 303 301 300 295 293 292 291 291 290 288 287 289 290 291 289 287 285 281 280 279 279 278 278
37 32 24 20 12 360 350 346 344 340 338 330 323 321 319 318 317 317 315 312 306 303 304 300 298 297 294 294 291 291 291 289 290 291 290 288 287 282 279 279 278 276 278
31 25 19 9 354 347 341 340 337 333 332 330 326 323 320 319 317 315 313 312 312 309 306 304 301 297 295 294 294 292 294 292 291 290 290 289 287 284 282 280 278 278 278
28 23 14 3 347 339 335 336 336 332 330 328 325 322 320 319 315 313 312 310 309 308 308 306 302 299 296 295 297 297 296 295 293 291 289 290 289 284 284 284 283 282 282
11 9 6 4 0 353 348 348 344 339 334 330 325 321 318 315 312 312 312 312 311 308 308 307 306 302 302 301 301 301 300 299 297 293 291 290 290 289 292 290 286 286 286
351 351 353 354 352 348 343 341 340 336 331 327 326 322 317 315 314 314 313 312 312 312 310 308 307 307 307 306 305 304 303 301 298 295 293 290 289 291 292 293 289 288 286
337 340 343 344 344 342 339 337 335 333 329 326 326 323 317 314 315 315 314 313 313 311 310 308 308 310 310 308 306 304 305 304 299 296 294 293 292 291 292 292 292 290 288
335 331 335 335 338 339 338 335 332 330 327 325 325 323 317 314 313 314 313 312 312 311 308 306 308 310 310 309 308 306 304 304 300 297 297 296 293 293 292 291 291 292 291
331 329 331 329 330 331 331 332 331 328 325 322 321 321 319 317 316 315 314 311 309 307 305 304 305 306 307 307 306 306 305 306 303 301 300 298 296 296 295 294 293 294 293
323 322 321 320 320 323 325 329 329 327 325 323 320 317 316 317 316 315 314 312 310 308 307 305 304 303 304 307 306 305 305 306 306 305 302 300 300 300 300 298 296 296 296
318 318 319 316 315 316 319 321 323 322 320 317 315 314 314 314 315 313 312 310 308 307 307 306 304 304 305 305 305 305 304 304 304 303 304 302 303 303 301 300 299 299 298
311 311 313 311 310 311 313 315 316 317 318 316 313 311 311 312 313 313 311 309 307 306 306 306 305 305 304 304 304 304 304 303 302 303 303 302 301 301 301 301 300 301 301
304 305 309 309 307 307 308 309 312 312 312 314 313 311 311 311 311 311 310 308 308 307 305 305 305 305 304 303 303 304 304 303 303 302 302 302 302 301 302 301 301 300 301
299 300 301 303 303 303 302 304 307 309 309 310 312 312 311 310 309 309 307 306 305 305 305 304 305 304 303 302 302 302 303 303 303 301 301 301 301 301 301 300 299 299 300
295 298 295 295 297 298 299 300 304 306 306 307 308 309 309 309 309 308 306 305 305 304 303 302 302 302 302 303 303 303 302 302 302 300 300 301 301 301 300 298 299 299 299
290 295 294 292 294 297 299 296 298 302 303 304 304 305 307 309 308 307 305 305 305 304 303 302 303 302 302 303 303 302 301 300 300 299 300 301 300 299 299 298 297 298 298
Height
5890 5890 5891 5892 5893 5893 5893 5893 5894 5894 5895 5895 5895 5895 5896 5896 5896 5896 5895 5895 5895 5895 5895 5894 5894 5894 5894 5893 5893 5893 5892 5892 5891 5891 5891 5890 5890 5890 5889 5889 5889 5889 5888
5891 5891 5892 5893 5893 5894 5894 5894 5894 5895 5895 5895 5895 5895 5895 5895 5895 5895 5895 5895 5894 5894 5894 5893 5893 5893 5893 5892 5892 5891 5891 5891 5890 5890 5889 5888 5888 5888 5887 5887 5887 5886 5886
5892 5893 5893 5894 5894 5894 5895 5895 5895 5895 5896 5895 5895 5895 5895 5894 5894 5894 5894 5894 5894 5893 5893 5892 5892 5892 5891 5891 5890 5890 5889 5889 5888 5888 5887 5886 5886 5885 5885 5884 5884 5884 5883
5893 5894 5895 5895 5895 5895 5895 5895 5895 5895 5895 5895 5895 5894 5894 5894 5894 5893 5893 5893 5892 5892 5891 5891 5890 5890 5890 5889 5889 5888 5887 5887 5886 5885 5885 5884 5883 5883 5882 5881 5881 5880 5880
5895 5895 5895 5896 5896 5896 5896 5896 5896 5896 5896 5895 5894 5894 5894 5894 5893 5892 5892 5892 5891 5890 5890 5889 5889 5888 5888 5887 5886 5886 5885 5884 5883 5883 5882 5881 5881 5880 5879 5878 5877 5877 5876
5896 5896 5896 5896 5897 5897 5896 5896 5896 5895 5895 5895 5894 5894 5893 5893 5892 5891 5891 5890 5889 5889 5888 5888 5887 5886 5886 5885 5884 5883 5882 5881 5880 5880 5879 5878 5877 5876 5876 5875 5874 5873 5872
5898 5898 5898 5897 5897 5897 5897 5896 5896 5895 5895 5894 5894 5893 5893 5892 5891 5890 5889 5888 5888 5887 5886 5886 5884 5884 5883 5883 5881 5880 5880 5878 5877 5876 5875 5874 5874 5873 5872 5871 5870 5870 5869
5898 5898 5898 5898 5897 5897 5896 5896 5895 5895 5894 5894 5893 5892 5892 5891 5890 5889 5888 5887 5886 5885 5884 5883 5882 5881 5880 5880 5879 5878 5877 5875 5874 5873 5872 5871 5870 5869 5868 5867 5867 5866 5865
5899 5899 5899 5898 5898 5897 5897 5896 5895 5895 5894 5893 5892 5892 5891 5890 5889 5888 5886 5885 5884 5883 5882 5881 5880 5879 5878 5877 5876 5874 5873 5872 5871 5869 5868 5868 5867 5866 5865 5864 5863 5862 5861
5900 5899 5899 5898 5898 5897 5896 5896 5895 5894 5893 5892 5891 5890 5890 5889 5888 5886 5885 5884 5882 5881 5880 5878 5877 5876 5875 5874 5873 5871 5870 5869 5868 5866 5865 5863 5862 5861 5860 5859 5858 5857 5856
5900 5899 5899 5898 5898 5897 5896 5895 5894 5893 5892 5891 5890 5889 5888 5887 5886 5885 5883 5882 5881 5879 5877 5876 5875 5873 5872 5871 5869 5868 5867 5866 5864 5863 5861 5859 5858 5857 5856 5855 5854 5853 5852
5900 5900 5899 5898 5897 5896 5895 5894 5893 5892 5891 5889 5888 5887 5886 5885 5884 5883 5881 5880 5879 5877 5875 5874 5872 5870 5869 5867 5866 5865 5863 5862 5860 5859 5857 5855 5854 5852 5851 5850 5849 5848 5847
5900 5899 5899 5898 5897 5896 5895 5893 5892 5891 5889 5888 5887 5886 5885 5883 5882 5881 5879 5877 5876 5874 5873 5871 5869 5867 5866 5864 5863 5861 5859 5858 5856 5855 5853 5851 5849 5848 5846 5845 5844 5843 5841
5900 5899 5898 5897 5896 5895 5894 5892 5891 5889 5888 5886 5885 5884 5883 5881 5880 5879 5877 5875 5874 5872 5870 5868 5866 5864 5863 5861 5859 5857 5856 5854 5852 5850 5848 5847 5845 5844 5842 5841 5839 5838 5837
5900 5899 5898 5896 5895 5894 5892 5891 5889 5888 5886 5885 5884 5882 5881 5879 5878 5876 5875 5873 5871 5869 5867 5865 5863 5861 5859 5857 5856 5854 5852 5850 5848 5846 5844 5843 5841 5839 5838 5836 5835 5833 5832
5900 5898 5897 5896 5894 5893 5891 5890 5888 5886 5885 5883 5882 5880 5878 5877 5875 5873 5872 5870 5868 5866 5864 5862 5860 5858 5856 5854 5852 5850 5848 5846 5844 5842 5840 5839 5837 5835 5833 5831 5830 5828 5826
5899 5898 5896 5895 5893 5892 5890 5888 5886 5885 5883 5881 5880 5878 5876 5874 5873 5871 5869 5867 5865 5863 5861 5859 5857 5855 5853 5851 5849 5847 5844 5842 5840 5838 5836 5834 5832 5830 5829 5826 5824 5822 5820
5897 5896 5895 5893 5892 5890 5888 5887 5885 5883 5881 5879 5877 5875 5874 5872 5870 5868 5866 5864 5862 5860 5858 5856 5853 5851 5849 5847 5845 5842 5840 5838 5836 5834 5832 5830 5828 5826 5823 5821 5819 5816 5814
5896 5894 5893 5892 5890 5889 5887 5885 5883 5881 5879 5877 5875 5873 5871 5869 5867 5865 5863 5860 5858 5856 5854 5852 5850 5847 5845 5843 5841 5838 5836 5834 5831 5829 5827 5825 5823 5820 5818 5815 5813 5810 5807
5894 5892 5891 5889 5888 5886 5885 5882 5880 5878 5877 5874 5872 5870 5868 5866 5864 5862 5859 5857 5854 5852 5849 5848 5845 5843 5841 5839 5836 5834 5832 5829 5827 5824 5822 5819 5817 5814 5812 5809 5807 5804 5801
5892 5890 5888 5887 5885 5884 5882 5880 5878 5876 5874 5871 5869 5867 5865 5863 5860 5858 5856 5853 5851 5848 5845 5843 5841 5839 5837 5834 5832 5829 5827 5824 5822 5819 5816 5814 5811 5809 5806 5803 5800 5797 5795
5889 5887 5886 5884 5882 5881 5879 5877 5875 5873 5870 5868 5866 5863 5861 5859 5857 5854 5852 5849 5847 5844 5841 5839 5836 5834 5832 5830 5827 5824 5822 5819 5817 5814 5811 5808 5805 5803 5800 5797 5794 5791 5788
5886 5884 5882 5881 5879 5878 5876 5874 5872 5869 5867 5865 5862 5859 5857 5855 5852 5850 5847 5845 5842 5839 5837 5835 5832 5829 5827 5824 5822 5819 5816 5814 5811 5808 5805 5802 5799 5796 5794 5791 5788 5785 5782
5882 5880 5878 5876 5875 5874 5872 5870 5868 5865 5863 5861 5858 5855 5853 5850 5848 5845 5843 5840 5838 5835 5832 5829 5827 5824 5821 5819 5816 5813 5810 5807 5805 5802 5798 5796 5793 5790 5787 5784 5781 5778 5775
5877 5875 5872 5872 5870 5869 5867 5865 5863 5861 5859 5856 5854 5851 5849 5846 5843 5840 5838 5835 5833 5830 5827 5824 5821 5819 5816 5812 5809 5807 5804 5801 5798 5795 5792 5789 5786 5783 5780 5778 5775 5772 5769
5873 5871 5868 5867 5865 5864 5862 5860 5858 5856 5854 5852 5849 5846 5844 5841 5838 5835 5833 5830 5827 5824 5821 5818 5815 5812 5809 5806 5803 5800 5797 5794 5791 5788 5785 5782 5780 5776 5774 5771 5768 5765 5762